TimeICT,TemperatureF,Dew PointF,Humidity,Sea Level PressureIn,VisibilityMPH,Wind Direction,Wind SpeedMPH,Gust SpeedMPH,PrecipitationIn,Events,Conditions,WindDirDegrees,DateUTC
12:00 AM,69.8,66.2,88,29.92,5.0,NNE,2.3,-,N/A,,Unknown,20,2014-01-01 17:00:00
12:30 AM,69.8,66.2,88,29.92,5.0,Calm,Calm,-,N/A,,Unknown,0,2014-01-01 17:30:00
1:00 AM,69.8,66.2,88,29.89,5.0,Variable,2.3,-,N/A,,Unknown,0,2014-01-01 18:00:00
7:00 AM,66.2,64.4,94,29.89,2.5,Variable,1.2,-,N/A,,Mist,0,2014-01-02 00:00:00
7:30 AM,66.2,62.6,88,29.92,2.5,Variable,2.3,-,N/A,,Mist,0,2014-01-02 00:30:00
8:00 AM,68.0,62.6,83,29.92,2.5,Variable,2.3,-,N/A,,Mist,0,2014-01-02 01:00:00
8:30 AM,69.8,64.4,83,29.92,2.5,Variable,2.3,-,N/A,,Mist,0,2014-01-02 01:30:00
9:00 AM,73.4,62.6,69,29.95,2.5,ESE,4.6,-,N/A,,Mist,120,2014-01-02 02:00:00
9:30 AM,75.2,64.4,69,29.95,2.5,ESE,5.8,-,N/A,,Mist,120,2014-01-02 02:30:00
10:00 AM,77.0,62.6,61,29.95,4.3,SE,6.9,-,N/A,,Unknown,130,2014-01-02 03:00:00
10:30 AM,78.8,62.6,57,29.95,4.3,ESE,4.6,-,N/A,,Unknown,110,2014-01-02 03:30:00
11:00 AM,80.6,62.6,54,29.92,4.3,Variable,3.5,-,N/A,,Unknown,0,2014-01-02 04:00:00
11:30 AM,80.6,62.6,54,29.92,4.3,Variable,3.5,-,N/A,,Unknown,0,2014-01-02 04:30:00
12:00 PM,82.4,62.6,51,29.89,5.6,Variable,2.3,-,N/A,,Unknown,0,2014-01-02 05:00:00
12:30 PM,82.4,62.6,51,29.89,5.6,NW,4.6,-,N/A,,Unknown,320,2014-01-02 05:30:00
1:00 PM,82.4,62.6,51,29.86,5.6,Variable,3.5,-,N/A,,Unknown,0,2014-01-02 06:00:00
1:30 PM,84.2,62.6,48,29.86,5.6,Variable,2.3,-,N/A,,Unknown,0,2014-01-02 06:30:00
2:00 PM,84.2,62.6,48,29.83,5.6,Variable,2.3,-,N/A,,Unknown,0,2014-01-02 07:00:00
2:30 PM,82.4,66.2,58,29.83,5.6,SW,4.6,-,N/A,,Unknown,230,2014-01-02 07:30:00
3:00 PM,84.2,66.2,55,29.83,5.6,SSW,5.8,-,N/A,,Unknown,210,2014-01-02 08:00:00
3:30 PM,84.2,66.2,55,29.80,5.6,WSW,4.6,-,N/A,,Unknown,240,2014-01-02 08:30:00
4:00 PM,84.2,66.2,55,29.80,5.6,WSW,4.6,-,N/A,,Unknown,240,2014-01-02 09:00:00
4:30 PM,84.2,66.2,55,29.80,5.6,WSW,4.6,-,N/A,,Unknown,240,2014-01-02 09:30:00
5:00 PM,82.4,66.2,58,29.83,5.6,WSW,4.6,-,N/A,,Unknown,240,2014-01-02 10:00:00
5:30 PM,80.6,68.0,65,29.83,5.6,WSW,3.5,-,N/A,,Unknown,250,2014-01-02 10:30:00
6:00 PM,78.8,68.0,69,29.83,5.6,WSW,3.5,-,N/A,,Unknown,240,2014-01-02 11:00:00
6:30 PM,77.0,68.0,74,29.86,5.6,WSW,4.6,-,N/A,,Unknown,240,2014-01-02 11:30:00
7:00 PM,77.0,68.0,74,29.86,5.6,WSW,3.5,-,N/A,,Unknown,240,2014-01-02 12:00:00
7:30 PM,75.2,69.8,83,29.86,5.6,SW,2.3,-,N/A,,Unknown,220,2014-01-02 12:30:00
8:00 PM,75.2,69.8,83,29.89,5.6,Calm,Calm,-,N/A,,Unknown,0,2014-01-02 13:00:00
8:30 PM,75.2,71.6,89,29.89,5.6,Calm,Calm,-,N/A,,Unknown,0,2014-01-02 13:30:00
9:00 PM,75.2,69.8,83,29.89,5.6,Calm,Calm,-,N/A,,Unknown,0,2014-01-02 14:00:00
9:30 PM,73.4,69.8,88,29.89,5.6,Calm,Calm,-,N/A,,Unknown,0,2014-01-02 14:30:00
10:00 PM,73.4,69.8,88,29.89,5.0,NNW,1.2,-,N/A,,Unknown,340,2014-01-02 15:00:00
10:30 PM,73.4,68.0,83,29.89,5.0,Variable,1.2,-,N/A,,Unknown,0,2014-01-02 15:30:00
11:00 PM,73.4,69.8,88,29.89,4.3,NNE,2.3,-,N/A,,Unknown,30,2014-01-02 16:00:00